Location: ??
(35.5052°N, 139.7262°E)
Time: 01:33:24
(UTC+00:00)

Cosmos 1932 - Pass Details

Date: 19 October 2021
Orbit: 943 x 987 km, 65.0° (Epoch: 01 December)

Event Time Altitude Azimuth Distance (km) Brightness Sun altitude
Rises 10:42:14 0° 337° (NNW) 3,616 7.9 -33.4°
Reaches altitude 10° 10:44:57 10° 345° (NNW) 2,672 7.1 -34.0°
Enters shadow 10:47:13 22° 357° (N) 1,956 6.2 -34.4°
